VIR29X LROP-EDDF

Flight info

Callsign VIR29X
Flight time 1h 59m
Altitude 40000
Route SOKRU DCT OXDOC DCT DEGET DCT ARSIN DCT SUBEN DCT AKINI/N0474F360 T161 DEBHI DEBHI1B
Aircraft A35K/H-SDE2E3GHIJ3J4J5LM1ORWXY/LB1D1

Departure

Time 2026-05-05 15:33
Airport Bucharest Henri Coandă International Airport (LROP)

Arrival

Time 2026-05-05 17:32
Airport Frankfurt Main Airport (EDDF)
Time Latitude Longitude Altitude Speed Heading
2026-05-05 14:45 44.57039 26.08256 325 ft 0 kts 309°
2026-05-05 15:18 44.57033 26.08267 324 ft 4 kts 294°
2026-05-05 15:18 44.57030 26.08300 324 ft 2 kts 268°
2026-05-05 15:18 44.57032 26.08330 325 ft 4 kts 262°
2026-05-05 15:19 44.57034 26.08364 325 ft 4 kts 286°
2026-05-05 15:19 44.57020 26.08388 324 ft 4 kts 350°
2026-05-05 15:19 44.57023 26.08388 324 ft 4 kts 354°
2026-05-05 15:19 44.57050 26.08383 324 ft 4 kts 352°
2026-05-05 15:20 44.57071 26.08379 324 ft 4 kts 353°
2026-05-05 15:20 44.57080 26.08378 324 ft 0 kts 354°
2026-05-05 15:23 44.57090 26.08377 328 ft 3 kts 354°
2026-05-05 15:23 44.57128 26.08371 327 ft 8 kts 354°
2026-05-05 15:23 44.57197 26.08373 325 ft 6 kts 35°
2026-05-05 15:23 44.57236 26.08453 324 ft 13 kts 50°
2026-05-05 15:24 44.57321 26.08484 325 ft 15 kts
2026-05-05 15:24 44.57429 26.08478 324 ft 18 kts 355°
2026-05-05 15:24 44.57499 26.08578 324 ft 16 kts 82°
2026-05-05 15:24 44.57513 26.08760 325 ft 21 kts 84°
2026-05-05 15:25 44.57529 26.08975 328 ft 24 kts 84°
2026-05-05 15:25 44.57547 26.09209 327 ft 24 kts 83°
2026-05-05 15:25 44.57562 26.09414 327 ft 21 kts 84°
2026-05-05 15:25 44.57576 26.09614 328 ft 18 kts 84°
2026-05-05 15:26 44.57592 26.09808 327 ft 21 kts 83°
2026-05-05 15:26 44.57603 26.09944 327 ft 12 kts 84°
2026-05-05 15:26 44.57613 26.10080 324 ft 16 kts 84°
2026-05-05 15:26 44.57625 26.10249 325 ft 19 kts 84°
2026-05-05 15:27 44.57640 26.10446 324 ft 22 kts 84°
2026-05-05 15:27 44.57657 26.10669 327 ft 24 kts 84°
2026-05-05 15:27 44.57675 26.10916 328 ft 26 kts 84°
2026-05-05 15:27 44.57695 26.11175 326 ft 27 kts 83°
2026-05-05 15:28 44.57716 26.11420 327 ft 23 kts 84°
2026-05-05 15:28 44.57731 26.11650 325 ft 25 kts 84°
2026-05-05 15:28 44.57750 26.11904 328 ft 27 kts 84°
2026-05-05 15:28 44.57770 26.12181 324 ft 30 kts 84°
2026-05-05 15:29 44.57790 26.12452 327 ft 17 kts 84°
2026-05-05 15:29 44.57803 26.12626 325 ft 19 kts 84°
2026-05-05 15:29 44.57820 26.12815 328 ft 15 kts 75°
2026-05-05 15:29 44.57838 26.12853 323 ft 1 kts 34°
2026-05-05 15:30 44.57850 26.12858 325 ft 2 kts 15°
2026-05-05 15:30 44.57853 26.12859 325 ft 0 kts
2026-05-05 15:31 44.57861 26.12858 324 ft 3 kts 358°
2026-05-05 15:31 44.57889 26.12844 324 ft 6 kts 335°
2026-05-05 15:31 44.57935 26.12803 323 ft 10 kts 323°
2026-05-05 15:31 44.57977 26.12722 325 ft 11 kts 281°
2026-05-05 15:32 44.57978 26.12641 326 ft 0 kts 264°
2026-05-05 15:32 44.57977 26.12633 328 ft 13 kts 264°
2026-05-05 15:32 44.57926 26.11946 325 ft 126 kts 264°
2026-05-05 15:32 44.57798 26.10298 536 ft 201 kts 265°
2026-05-05 15:33 44.57652 26.08234 1555 ft 220 kts 263°
2026-05-05 15:33 44.57476 26.05945 2533 ft 246 kts 263°
2026-05-05 15:33 44.57291 26.03523 3412 ft 253 kts 263°
2026-05-05 15:33 44.57100 26.01042 4322 ft 258 kts 264°
2026-05-05 15:34 44.56906 25.98509 5217 ft 265 kts 265°
2026-05-05 15:34 44.56798 25.95900 6077 ft 271 kts 275°
2026-05-05 15:34 44.57203 25.93323 7002 ft 272 kts 296°
2026-05-05 15:34 44.58118 25.91053 8031 ft 271 kts 307°
2026-05-05 15:35 44.59261 25.88940 9116 ft 272 kts 313°
2026-05-05 15:35 44.60511 25.86941 10181 ft 274 kts 315°
2026-05-05 15:35 44.61849 25.84923 10790 ft 294 kts 316°
2026-05-05 15:35 44.63312 25.82741 11168 ft 320 kts 316°
2026-05-05 15:36 44.64864 25.80384 11767 ft 335 kts 316°
2026-05-05 15:36 44.66406 25.77868 12619 ft 344 kts 310°
2026-05-05 15:36 44.67796 25.75077 13502 ft 352 kts 307°
2026-05-05 15:36 44.69153 25.72174 14314 ft 358 kts 306°
2026-05-05 15:37 44.70491 25.69191 15116 ft 364 kts 305°
2026-05-05 15:37 44.71826 25.66142 15919 ft 368 kts 304°
2026-05-05 15:37 44.73172 25.63034 16735 ft 373 kts 304°
2026-05-05 15:37 44.74510 25.59935 17520 ft 378 kts 304°
2026-05-05 15:38 44.75885 25.56753 18336 ft 383 kts 304°
2026-05-05 15:38 44.77229 25.53480 19062 ft 389 kts 301°
2026-05-05 15:38 44.78524 25.50118 19857 ft 393 kts 301°
2026-05-05 15:38 44.79826 25.46713 20657 ft 396 kts 301°
2026-05-05 15:39 44.81132 25.43261 21416 ft 401 kts 300°
2026-05-05 15:39 44.82440 25.39773 22194 ft 405 kts 300°
2026-05-05 15:39 44.83756 25.36245 22949 ft 409 kts 300°
2026-05-05 15:39 44.85085 25.32667 23662 ft 413 kts 300°
2026-05-05 15:40 44.86423 25.29059 24298 ft 417 kts 300°
2026-05-05 15:40 44.87768 25.25425 24962 ft 420 kts 300°
2026-05-05 15:40 44.89122 25.21764 25624 ft 422 kts 300°
2026-05-05 15:40 44.90467 25.18125 26246 ft 425 kts 300°
2026-05-05 15:41 44.91836 25.14415 26911 ft 427 kts 300°
2026-05-05 15:41 44.93211 25.10684 27570 ft 429 kts 300°
2026-05-05 15:41 44.94598 25.06920 28180 ft 432 kts 300°
2026-05-05 15:41 44.95990 25.03139 28762 ft 436 kts 300°
2026-05-05 15:42 44.97392 24.99324 29348 ft 439 kts 300°
2026-05-05 15:42 44.98801 24.95482 29941 ft 442 kts 301°
2026-05-05 15:42 45.00218 24.91615 30429 ft 445 kts 300°
2026-05-05 15:42 45.01645 24.87715 30849 ft 449 kts 300°
2026-05-05 15:43 45.03085 24.83774 31296 ft 452 kts 300°
2026-05-05 15:43 45.04531 24.79809 31740 ft 455 kts 300°
2026-05-05 15:43 45.05986 24.75814 32156 ft 458 kts 300°
2026-05-05 15:43 45.07449 24.71789 32545 ft 462 kts 300°
2026-05-05 15:44 45.08917 24.67744 32924 ft 464 kts 300°
2026-05-05 15:44 45.10381 24.63706 33301 ft 467 kts 300°
2026-05-05 15:44 45.11866 24.59604 33675 ft 470 kts 300°
2026-05-05 15:44 45.13361 24.55470 34032 ft 472 kts 300°
2026-05-05 15:45 45.14859 24.51320 34352 ft 474 kts 299°
2026-05-05 15:45 45.16359 24.47157 34751 ft 473 kts 299°
2026-05-05 15:45 45.17851 24.43006 35201 ft 472 kts 299°
2026-05-05 15:45 45.19340 24.38859 35634 ft 471 kts 299°
2026-05-05 15:46 45.20824 24.34720 36012 ft 470 kts 298°
2026-05-05 15:46 45.22305 24.30585 36386 ft 470 kts 298°
2026-05-05 15:46 45.23782 24.26452 36731 ft 470 kts 298°
2026-05-05 15:46 45.25258 24.22320 37093 ft 470 kts 298°
2026-05-05 15:47 45.26731 24.18189 37469 ft 468 kts 298°
2026-05-05 15:47 45.27702 24.15463 37717 ft 467 kts 298°
2026-05-05 15:47 45.29661 24.09952 38163 ft 467 kts 298°
2026-05-05 15:47 45.31124 24.05830 38470 ft 467 kts 298°
2026-05-05 15:48 45.32580 24.01721 38764 ft 466 kts 298°
2026-05-05 15:48 45.34038 23.97600 39017 ft 466 kts 298°
2026-05-05 15:48 45.35474 23.93534 39231 ft 466 kts 298°
2026-05-05 15:48 45.36929 23.89409 39427 ft 467 kts 298°
2026-05-05 15:49 45.38383 23.85280 39630 ft 467 kts 298°
2026-05-05 15:49 45.39837 23.81144 39850 ft 466 kts 297°
2026-05-05 15:49 45.41288 23.77012 39980 ft 468 kts 297°
2026-05-05 15:50 45.44189 23.68728 40016 ft 467 kts 297°
2026-05-05 15:50 45.47087 23.60431 39999 ft 467 kts 297°
2026-05-05 15:51 45.49976 23.52131 39999 ft 467 kts 297°
2026-05-05 15:51 45.52865 23.43806 40014 ft 468 kts 297°
2026-05-05 15:52 45.55746 23.35480 39984 ft 468 kts 297°
2026-05-05 15:52 45.58603 23.27199 39989 ft 468 kts 297°
2026-05-05 15:53 45.61471 23.18859 39975 ft 467 kts 297°
2026-05-05 15:53 45.64331 23.10513 39970 ft 467 kts 297°
2026-05-05 15:54 45.67185 23.02154 39973 ft 467 kts 297°
2026-05-05 15:54 45.70015 22.93847 39964 ft 467 kts 297°
2026-05-05 15:55 45.72858 22.85474 39954 ft 467 kts 297°
2026-05-05 15:55 45.75692 22.77098 39971 ft 467 kts 297°
2026-05-05 15:56 45.78517 22.68726 39975 ft 467 kts 296°
2026-05-05 15:56 45.81338 22.60338 39974 ft 467 kts 296°
2026-05-05 15:57 45.84152 22.51944 39970 ft 467 kts 296°
2026-05-05 15:57 45.86957 22.43548 39965 ft 467 kts 296°
2026-05-05 15:58 45.89761 22.35132 39969 ft 467 kts 296°
2026-05-05 15:58 45.92538 22.26765 39967 ft 467 kts 296°
2026-05-05 15:59 45.95327 22.18341 39963 ft 467 kts 296°
2026-05-05 15:59 45.98109 22.09908 39962 ft 466 kts 296°
2026-05-05 16:00 46.00882 22.01472 39958 ft 466 kts 296°
2026-05-05 16:00 46.03649 21.93031 39962 ft 466 kts 296°
2026-05-05 16:01 46.05945 21.86004 39960 ft 466 kts 295°
2026-05-05 16:01 46.08700 21.77549 39952 ft 466 kts 295°
2026-05-05 16:02 46.11452 21.69074 39954 ft 466 kts 295°
2026-05-05 16:02 46.14182 21.60639 39948 ft 466 kts 295°
2026-05-05 16:03 46.16921 21.52152 39944 ft 467 kts 295°
2026-05-05 16:03 46.19657 21.43643 39941 ft 467 kts 295°
2026-05-05 16:04 46.22367 21.35187 39940 ft 467 kts 295°
2026-05-05 16:04 46.25090 21.26662 39940 ft 467 kts 295°
2026-05-05 16:05 46.27806 21.18131 39939 ft 467 kts 295°
2026-05-05 16:05 46.30519 21.09582 39935 ft 467 kts 295°
2026-05-05 16:06 46.33225 21.01025 39937 ft 467 kts 295°
2026-05-05 16:06 46.35906 20.92520 39934 ft 467 kts 294°
2026-05-05 16:07 46.38601 20.83942 39935 ft 468 kts 294°
2026-05-05 16:07 46.41293 20.75344 39934 ft 469 kts 294°
2026-05-05 16:08 46.43983 20.66724 39932 ft 469 kts 294°
2026-05-05 16:08 46.46663 20.58105 39930 ft 469 kts 294°
2026-05-05 16:09 46.49337 20.49480 39925 ft 469 kts 294°
2026-05-05 16:09 46.52007 20.40835 39929 ft 469 kts 294°
2026-05-05 16:10 46.54671 20.32180 39932 ft 469 kts 294°
2026-05-05 16:10 46.57310 20.23577 39927 ft 469 kts 294°
2026-05-05 16:11 46.59967 20.14886 39926 ft 469 kts 294°
2026-05-05 16:12 46.65246 19.97526 39919 ft 469 kts 293°
2026-05-05 16:13 46.71801 19.75806 39912 ft 469 kts 293°
2026-05-05 16:13 46.74414 19.67093 39922 ft 469 kts 293°
2026-05-05 16:14 46.79624 19.49628 39922 ft 469 kts 293°
2026-05-05 16:15 46.84807 19.32134 39919 ft 468 kts 292°
2026-05-05 16:16 46.89935 19.14702 39916 ft 468 kts 292°
2026-05-05 16:17 46.93779 19.01553 39922 ft 468 kts 292°
2026-05-05 16:18 46.97602 18.88408 39918 ft 467 kts 292°
2026-05-05 16:19 47.01408 18.75247 39924 ft 468 kts 292°
2026-05-05 16:19 47.05200 18.62065 39922 ft 467 kts 292°
2026-05-05 16:20 47.10223 18.44494 39912 ft 467 kts 291°
2026-05-05 16:22 47.16442 18.22564 39913 ft 464 kts 291°
2026-05-05 16:23 47.21350 18.05106 39914 ft 463 kts 291°
2026-05-05 16:23 47.25037 17.91916 39910 ft 463 kts 291°
2026-05-05 16:24 47.27480 17.83136 39913 ft 462 kts 290°
2026-05-05 16:25 47.31119 17.69987 39908 ft 463 kts 291°
2026-05-05 16:25 47.34756 17.56782 39909 ft 462 kts 290°
2026-05-05 16:26 47.39561 17.39218 39913 ft 462 kts 290°
2026-05-05 16:27 47.41951 17.30429 39910 ft 463 kts 290°
2026-05-05 16:27 47.44344 17.21609 39891 ft 461 kts 290°
2026-05-05 16:28 47.46717 17.12828 39884 ft 458 kts 290°
2026-05-05 16:28 47.49050 17.04148 39871 ft 459 kts 289°
2026-05-05 16:29 47.51403 16.95369 39861 ft 460 kts 290°
2026-05-05 16:29 47.53758 16.86552 39844 ft 460 kts 290°
2026-05-05 16:30 47.56110 16.77719 39849 ft 458 kts 289°
2026-05-05 16:30 47.58454 16.68954 39855 ft 459 kts 290°
2026-05-05 16:31 47.60857 16.60168 39840 ft 462 kts 290°
2026-05-05 16:31 47.63260 16.51373 39824 ft 461 kts 290°
2026-05-05 16:32 47.65651 16.42552 39813 ft 460 kts 290°
2026-05-05 16:32 47.68018 16.33768 39818 ft 459 kts 289°
2026-05-05 16:33 47.70384 16.24946 39806 ft 461 kts 290°
2026-05-05 16:33 47.72758 16.16066 39789 ft 462 kts 290°
2026-05-05 16:34 47.75120 16.07208 39792 ft 460 kts 289°
2026-05-05 16:34 47.77464 15.98370 39793 ft 460 kts 290°
2026-05-05 16:35 47.79808 15.89501 39795 ft 462 kts 289°
2026-05-05 16:35 47.82152 15.80602 39774 ft 462 kts 289°
2026-05-05 16:36 47.84482 15.71731 39766 ft 456 kts 288°
2026-05-05 16:36 47.86749 15.63060 39776 ft 452 kts 289°
2026-05-05 16:37 47.89030 15.54285 39767 ft 456 kts 289°
2026-05-05 16:37 47.91334 15.45400 39760 ft 459 kts 288°
2026-05-05 16:38 47.93622 15.36551 39758 ft 458 kts 289°
2026-05-05 16:38 47.95907 15.27667 39756 ft 459 kts 289°
2026-05-05 16:39 47.98192 15.18750 39755 ft 460 kts 289°
2026-05-05 16:39 48.00478 15.09797 39741 ft 461 kts 289°
2026-05-05 16:40 48.02742 15.00902 39753 ft 460 kts 289°
2026-05-05 16:40 48.05009 14.91954 39734 ft 461 kts 289°
2026-05-05 16:41 48.07275 14.82974 39731 ft 461 kts 289°
2026-05-05 16:41 48.09534 14.73987 39731 ft 461 kts 288°
2026-05-05 16:42 48.11784 14.64998 39719 ft 461 kts 288°
2026-05-05 16:42 48.14014 14.56057 39718 ft 462 kts 288°
2026-05-05 16:43 48.16253 14.47043 39732 ft 462 kts 288°
2026-05-05 16:43 48.18483 14.38025 39713 ft 461 kts 288°
2026-05-05 16:44 48.20708 14.28995 39722 ft 461 kts 288°
2026-05-05 16:44 48.22926 14.19959 39715 ft 462 kts 288°
2026-05-05 16:45 48.25138 14.10905 39717 ft 462 kts 288°
2026-05-05 16:45 48.27344 14.01844 39726 ft 462 kts 288°
2026-05-05 16:46 48.29529 13.92828 39737 ft 462 kts 288°
2026-05-05 16:46 48.31722 13.83746 39740 ft 462 kts 287°
2026-05-05 16:47 48.33541 13.76182 39735 ft 463 kts 287°
2026-05-05 16:47 48.35723 13.67075 39740 ft 463 kts 287°
2026-05-05 16:48 48.37898 13.57962 39738 ft 463 kts 287°
2026-05-05 16:48 48.40064 13.48846 39738 ft 463 kts 287°
2026-05-05 16:49 48.42226 13.39709 39738 ft 463 kts 287°
2026-05-05 16:49 48.44396 13.30557 39738 ft 464 kts 287°
2026-05-05 16:50 48.46754 13.21561 39741 ft 465 kts 289°
2026-05-05 16:50 48.49195 13.12538 39742 ft 465 kts 289°
2026-05-05 16:51 48.51604 13.03484 39743 ft 465 kts 289°
2026-05-05 16:51 48.53988 12.94383 39743 ft 466 kts 288°
2026-05-05 16:52 48.56358 12.85271 39741 ft 466 kts 288°
2026-05-05 16:52 48.58720 12.76151 39741 ft 466 kts 288°
2026-05-05 16:53 48.61077 12.67025 39742 ft 466 kts 288°
2026-05-05 16:53 48.63425 12.57894 39744 ft 466 kts 288°
2026-05-05 16:54 48.65766 12.48757 39744 ft 466 kts 288°
2026-05-05 16:54 48.68099 12.39612 39747 ft 466 kts 288°
2026-05-05 16:55 48.70426 12.30457 39750 ft 466 kts 288°
2026-05-05 16:55 48.72750 12.21276 39757 ft 467 kts 288°
2026-05-05 16:56 48.74864 12.12043 39758 ft 465 kts 280°
2026-05-05 16:56 48.76094 12.02450 39775 ft 463 kts 277°
2026-05-05 16:57 48.77141 11.92805 39789 ft 463 kts 276°
2026-05-05 16:57 48.78151 11.83151 39800 ft 464 kts 276°
2026-05-05 16:58 48.79166 11.73479 39799 ft 465 kts 276°
2026-05-05 16:58 48.80183 11.63800 39801 ft 465 kts 276°
2026-05-05 16:59 48.81198 11.54122 39802 ft 465 kts 276°
2026-05-05 16:59 48.82194 11.44427 39802 ft 465 kts 276°
2026-05-05 17:00 48.82682 11.39649 39700 ft 461 kts 275°
2026-05-05 17:00 48.83172 11.34855 39055 ft 461 kts 275°
2026-05-05 17:00 48.83805 11.30048 38187 ft 468 kts 281°
2026-05-05 17:00 48.84851 11.25331 37170 ft 476 kts 289°
2026-05-05 17:01 48.86383 11.20813 36160 ft 486 kts 298°
2026-05-05 17:01 48.88426 11.16681 35328 ft 492 kts 308°
2026-05-05 17:01 48.90834 11.12969 34601 ft 494 kts 312°
2026-05-05 17:01 48.93344 11.09379 33771 ft 497 kts 314°
2026-05-05 17:02 48.95892 11.05850 33129 ft 493 kts 314°
2026-05-05 17:02 48.98436 11.02367 32589 ft 488 kts 315°
2026-05-05 17:02 49.00947 10.98913 32014 ft 484 kts 315°
2026-05-05 17:02 49.03429 10.95469 31496 ft 480 kts 315°
2026-05-05 17:03 49.05848 10.92088 30926 ft 476 kts 315°
2026-05-05 17:03 49.08271 10.88682 30399 ft 472 kts 315°
2026-05-05 17:03 49.10679 10.85292 29836 ft 469 kts 315°
2026-05-05 17:03 49.13061 10.81923 29278 ft 464 kts 315°
2026-05-05 17:04 49.15415 10.78585 28724 ft 459 kts 315°
2026-05-05 17:04 49.17740 10.75283 28223 ft 454 kts 315°
2026-05-05 17:04 49.20043 10.72010 27709 ft 449 kts 315°
2026-05-05 17:04 49.22248 10.68671 27193 ft 443 kts 311°
2026-05-05 17:05 49.24369 10.65271 26669 ft 440 kts 311°
2026-05-05 17:05 49.26476 10.61894 26152 ft 436 kts 311°
2026-05-05 17:05 49.28564 10.58564 25660 ft 431 kts 312°
2026-05-05 17:05 49.30643 10.55261 25156 ft 427 kts 312°
2026-05-05 17:06 49.32673 10.52040 24661 ft 424 kts 312°
2026-05-05 17:06 49.34712 10.48804 24165 ft 420 kts 312°
2026-05-05 17:06 49.36606 10.45429 23679 ft 415 kts 304°
2026-05-05 17:06 49.38314 10.41796 23237 ft 424 kts 303°
2026-05-05 17:07 49.40018 10.38052 22762 ft 427 kts 303°
2026-05-05 17:07 49.41720 10.34311 22317 ft 425 kts 303°
2026-05-05 17:07 49.43403 10.30611 21922 ft 421 kts 303°
2026-05-05 17:07 49.45070 10.26945 21478 ft 416 kts 303°
2026-05-05 17:08 49.46721 10.23312 21060 ft 413 kts 303°
2026-05-05 17:08 49.48356 10.19709 20654 ft 409 kts 302°
2026-05-05 17:08 49.49979 10.16127 20227 ft 406 kts 302°
2026-05-05 17:08 49.51566 10.12622 19811 ft 403 kts 302°
2026-05-05 17:09 49.53160 10.09096 19395 ft 400 kts 302°
2026-05-05 17:09 49.54751 10.05577 19011 ft 401 kts 303°
2026-05-05 17:09 49.56341 10.02050 18613 ft 400 kts 302°
2026-05-05 17:09 49.57925 9.98530 18192 ft 398 kts 303°
2026-05-05 17:10 49.59498 9.95037 17754 ft 396 kts 303°
2026-05-05 17:10 49.61061 9.91555 17342 ft 393 kts 302°
2026-05-05 17:10 49.62531 9.88274 16958 ft 389 kts 302°
2026-05-05 17:10 49.63553 9.85991 16686 ft 387 kts 302°
2026-05-05 17:11 49.65080 9.82575 16298 ft 385 kts 302°
2026-05-05 17:11 49.66596 9.79180 15918 ft 382 kts 302°
2026-05-05 17:11 49.68096 9.75817 15522 ft 380 kts 302°
2026-05-05 17:11 49.69589 9.72470 15143 ft 377 kts 302°
2026-05-05 17:12 49.71073 9.69135 14756 ft 375 kts 302°
2026-05-05 17:12 49.72544 9.65829 14382 ft 373 kts 302°
2026-05-05 17:12 49.74012 9.62523 13997 ft 370 kts 302°
2026-05-05 17:12 49.75468 9.59249 13623 ft 368 kts 302°
2026-05-05 17:13 49.76906 9.56000 13216 ft 366 kts 302°
2026-05-05 17:13 49.78343 9.52746 12838 ft 364 kts 302°
2026-05-05 17:13 49.79741 9.49583 12465 ft 358 kts 302°
2026-05-05 17:13 49.81135 9.46417 12106 ft 355 kts 302°
2026-05-05 17:14 49.82534 9.43236 11754 ft 359 kts 302°
2026-05-05 17:14 49.83940 9.40043 11386 ft 358 kts 302°
2026-05-05 17:14 49.85334 9.36861 11025 ft 356 kts 301°
2026-05-05 17:14 49.86458 9.33481 10727 ft 350 kts 288°
2026-05-05 17:15 49.87216 9.29887 10348 ft 352 kts 285°
2026-05-05 17:15 49.87903 9.26270 9928 ft 344 kts 284°
2026-05-05 17:15 49.88548 9.22843 9623 ft 317 kts 284°
2026-05-05 17:15 49.89149 9.19673 9212 ft 297 kts 284°
2026-05-05 17:16 49.89718 9.16664 8893 ft 289 kts 284°
2026-05-05 17:16 49.90283 9.13670 8816 ft 289 kts 284°
2026-05-05 17:16 49.90846 9.10689 8832 ft 287 kts 284°
2026-05-05 17:16 49.91405 9.07739 8815 ft 279 kts 284°
2026-05-05 17:17 49.91938 9.04938 8825 ft 262 kts 283°
2026-05-05 17:17 49.92440 9.02297 8824 ft 252 kts 283°
2026-05-05 17:17 49.92930 8.99693 8825 ft 251 kts 283°
2026-05-05 17:17 49.93418 8.97094 8842 ft 251 kts 283°
2026-05-05 17:18 49.94002 8.94547 8818 ft 253 kts 294°
2026-05-05 17:18 49.95126 8.92432 8823 ft 258 kts 321°
2026-05-05 17:18 49.96759 8.91380 8836 ft 261 kts 351°
2026-05-05 17:18 49.98579 8.91290 8823 ft 263 kts
2026-05-05 17:19 50.00408 8.91446 8822 ft 264 kts
2026-05-05 17:19 50.02194 8.92212 8821 ft 264 kts 30°
2026-05-05 17:19 50.03479 8.94108 8837 ft 260 kts 61°
2026-05-05 17:19 50.04215 8.96652 8819 ft 258 kts 72°
2026-05-05 17:20 50.04817 8.99297 8801 ft 258 kts 73°
2026-05-05 17:20 50.05400 9.01900 8505 ft 254 kts 73°
2026-05-05 17:20 50.05991 9.04506 8075 ft 256 kts 72°
2026-05-05 17:20 50.06590 9.07112 7718 ft 256 kts 72°
2026-05-05 17:21 50.07196 9.09705 7410 ft 252 kts 72°
2026-05-05 17:21 50.07784 9.12246 7055 ft 252 kts 72°
2026-05-05 17:21 50.08376 9.14804 6740 ft 250 kts 73°
2026-05-05 17:22 50.09603 9.19846 6092 ft 247 kts 64°
2026-05-05 17:22 50.10764 9.21805 5677 ft 249 kts 32°
2026-05-05 17:22 50.12394 9.22629 5302 ft 247 kts
2026-05-05 17:22 50.14039 9.22108 4995 ft 241 kts 331°
2026-05-05 17:23 50.15268 9.20418 4645 ft 234 kts 300°
2026-05-05 17:23 50.15911 9.18123 4338 ft 229 kts 285°
2026-05-05 17:23 50.16372 9.15736 4035 ft 229 kts 284°
2026-05-05 17:23 50.16598 9.13295 3982 ft 228 kts 266°
2026-05-05 17:24 50.16353 9.10872 3967 ft 225 kts 254°
2026-05-05 17:24 50.15885 9.08574 3971 ft 225 kts 249°
2026-05-05 17:24 50.15338 9.06279 3970 ft 226 kts 248°
2026-05-05 17:24 50.14786 9.03991 3979 ft 226 kts 248°
2026-05-05 17:25 50.14239 9.01700 3975 ft 225 kts 249°
2026-05-05 17:25 50.13871 9.00146 3980 ft 226 kts 248°
2026-05-05 17:25 50.13157 8.97116 3980 ft 225 kts 249°
2026-05-05 17:25 50.12613 8.94823 3977 ft 225 kts 249°
2026-05-05 17:26 50.12067 8.92532 3980 ft 225 kts 248°
2026-05-05 17:26 50.11522 8.90241 3981 ft 226 kts 249°
2026-05-05 17:26 50.10985 8.87974 3982 ft 216 kts 249°
2026-05-05 17:26 50.10487 8.85881 4016 ft 197 kts 249°
2026-05-05 17:27 50.10032 8.83964 3918 ft 183 kts 249°
2026-05-05 17:27 50.09595 8.82133 3646 ft 178 kts 249°
2026-05-05 17:27 50.09166 8.80325 3340 ft 176 kts 249°
2026-05-05 17:27 50.08750 8.78578 3086 ft 169 kts 250°
2026-05-05 17:28 50.08339 8.76853 2843 ft 169 kts 250°
2026-05-05 17:28 50.07930 8.75135 2624 ft 169 kts 250°
2026-05-05 17:28 50.07530 8.73450 2407 ft 161 kts 250°
2026-05-05 17:28 50.07158 8.71887 2191 ft 147 kts 250°
2026-05-05 17:29 50.06818 8.70459 2016 ft 135 kts 250°
2026-05-05 17:29 50.06496 8.69108 1831 ft 133 kts 250°
2026-05-05 17:29 50.06175 8.67757 1660 ft 133 kts 249°
2026-05-05 17:29 50.05851 8.66407 1476 ft 134 kts 249°
2026-05-05 17:30 50.05529 8.65052 1296 ft 133 kts 250°
2026-05-05 17:30 50.05208 8.63719 1090 ft 134 kts 250°
2026-05-05 17:30 50.04894 8.62380 858 ft 133 kts 250°
2026-05-05 17:30 50.04567 8.61037 678 ft 133 kts 250°
2026-05-05 17:31 50.04250 8.59686 488 ft 133 kts 250°
2026-05-05 17:31 50.03927 8.58337 377 ft 133 kts 249°
2026-05-05 17:31 50.03643 8.57116 361 ft 99 kts 249°
2026-05-05 17:31 50.03448 8.56336 363 ft 55 kts 251°
2026-05-05 17:32 50.03354 8.55907 361 ft 38 kts 251°
2026-05-05 17:32 50.03313 8.55643 360 ft 37 kts 263°
2026-05-05 17:32 50.03333 8.55314 362 ft 8 kts 279°
2026-05-05 17:32 50.03333 8.55311 363 ft 1 kts 279°
2026-05-05 17:33 50.03337 8.55273 356 ft 6 kts 279°
2026-05-05 17:33 50.03351 8.55145 365 ft 25 kts 279°
2026-05-05 17:33 50.03319 8.54754 365 ft 41 kts 250°
2026-05-05 17:33 50.03308 8.54500 365 ft 19 kts 316°
2026-05-05 17:34 50.03362 8.54453 359 ft 0 kts 337°
2026-05-05 17:37 50.03365 8.54451 359 ft 2 kts 337°
2026-05-05 17:38 50.03391 8.54435 359 ft 8 kts 338°
2026-05-05 17:38 50.03552 8.54343 362 ft 18 kts 339°
2026-05-05 17:38 50.03582 8.54326 362 ft 0 kts 340°
2026-05-05 17:39 50.03610 8.54314 357 ft 10 kts 354°
2026-05-05 17:39 50.03667 8.54374 361 ft 0 kts 57°
2026-05-05 17:41 50.03672 8.54390 365 ft 8 kts 65°
2026-05-05 17:41 50.03718 8.54555 365 ft 23 kts 67°
2026-05-05 17:41 50.03774 8.54802 361 ft 26 kts 69°
2026-05-05 17:41 50.03840 8.55076 360 ft 28 kts 68°
2026-05-05 17:42 50.03912 8.55377 363 ft 31 kts 70°
2026-05-05 17:42 50.03978 8.55653 359 ft 28 kts 69°
2026-05-05 17:42 50.04049 8.55952 360 ft 31 kts 70°
2026-05-05 17:42 50.04120 8.56249 362 ft 27 kts 69°
2026-05-05 17:43 50.04173 8.56473 363 ft 15 kts 70°
2026-05-05 17:43 50.04196 8.56568 364 ft 0 kts 69°
2026-05-05 17:44 50.04202 8.56590 362 ft 4 kts 70°
2026-05-05 17:44 50.04217 8.56652 365 ft 8 kts 69°
2026-05-05 17:44 50.04244 8.56751 363 ft 12 kts 59°
2026-05-05 17:44 50.04320 8.56816 365 ft 14 kts 11°
2026-05-05 17:45 50.04425 8.56850 363 ft 15 kts 15°
2026-05-05 17:45 50.04459 8.56947 361 ft 9 kts 110°
2026-05-05 17:45 50.04441 8.56970 365 ft 2 kts 160°
2026-05-05 17:45 50.04412 8.56986 365 ft 7 kts 160°
2026-05-05 17:46 50.04389 8.56999 361 ft 0 kts 160°